Location: Grosbois
(47.3196°N, 4.5968°E)
Time: 07:08:59
(UTC+00:00)

Daily predictions for brighter satellites

Satellite Brightness Start Highest point End
(mag) Time Altitude Azimuth Time Altitude Azimuth Time Altitude Azimuth
Meteor 1-21 4.3 18:07:58 10° N 18:13:32 61° ENE 18:19:03 10° SSE
MOS 1 Rocket 4.0 18:10:41 10° NNE 18:14:34 28° E 18:18:19 10° SSE
Cosmos 1603 3.8 18:09:32 10° NNW 18:15:15 90° WSW 18:20:53 10° SSE
Helios 1A Rocket 3.9 18:11:20 10° S 18:15:20 52° W 18:19:23 10° NNW
CSL-04 Rocket 3.8 18:11:20 10° SSE 18:16:40 62° ENE 18:22:06 10° N
SJ 16-02 2.2 18:14:31 10° SW 18:18:49 57° WNW 18:23:10 10° NNE
Cosmos 2112 Rocket 4.4 18:15:19 10° NNW 18:20:31 70° WSW 18:25:42 10° SSE
Cosmos 1937 Rocket 3.5 18:17:24 10° S 18:22:34 61° ESE 18:27:43 10° NNE
NOSS 8 (H) 4.1 18:19:57 10° SSW 18:23:08 67° SE 18:26:07 10° NE
Cosmos 1680 Rocket 4.3 18:18:53 10° NNW 18:23:59 57° WSW 18:29:06 10° S
Abrixas rocket 1.8 18:26:12 10° W 18:29:03 82° N 18:31:43 11° ENE
Okean 2 Rocket 3.9 18:25:53 10° SSE 18:29:46 29° E 18:33:39 10° NNE
Cosmos 1464 Rocket 4.4 18:25:46 10° SSE 18:31:23 40° E 18:37:05 10° NNE
NOSS 2-2 (E) 3.3 18:28:09 10° SSW 18:31:30 46° ESE 18:35:14 10° NE
SL-08 RB Rocket 4.4 18:28:21 10° SE 18:32:31 36° ENE 18:36:41 10° N
Cosmos 1544 4.3 18:31:27 10° SSW 18:35:00 48° WNW 18:38:34 10° N
USA 116 3.4 18:31:44 10° NNE 18:35:10 78° ESE 18:38:59 10° S
Okean 2 3.9 18:31:42 10° NNW 18:35:51 66° W 18:39:58 10° S
Okean-O 3.8 18:31:47 10° S 18:36:03 46° W 18:40:21 10° NNW
ATLAS 2AS CENTAUR R/B 4.4 18:34:22 10° SE 18:37:36 13° ESE 18:40:51 10° ENE
CZ-2C R/B 3.3 18:37:05 10° SSW 18:38:01 11° S 18:38:56 10° SSE
Cosmos 1300 Rocket 4.2 18:34:22 10° SSE 18:38:20 34° E 18:42:21 10° NNE
NOSS 2-2 (D) 3.4 18:36:52 10° SSW 18:40:11 43° ESE 18:43:50 10° NE
Iridium 4 Rocket 4.0 18:39:32 10° SSW 18:44:27 65° W 18:49:52 10° N
USA 102 3.6 18:39:27 10° SE 18:44:44 26° E 18:45:15 25° E
CENTAUR R/B 3.7 18:37:35 10° NW 18:45:01 45° NE 18:51:58 15° ESE
YAOGAN 1 3.6 18:41:11 10° S 18:45:23 50° W 18:49:37 10° NNW
Cosmos 1975 3.6 18:42:02 10° SSW 18:46:04 58° WNW 18:50:07 10° N
H-2A R/B 2.0 18:44:31 10° SSE 18:49:29 88° WSW 18:54:36 10° NNW
SJ-11-01 4.4 18:45:23 10° S 18:50:06 79° WSW 18:54:50 10° NNW
Cosmos 1437 3.9 18:47:36 10° NNW 18:50:28 42° W 18:53:18 10° S
CZ-4 R/B 3.2 18:46:56 10° SSW 18:50:50 36° W 18:54:44 10° NNW
Cosmos 1674 4.0 18:47:50 10° NNE 18:50:54 22° ENE 18:52:10 19° E
ATLAS 3B R/B 4.1 18:46:07 10° NNW 18:51:34 25° NNE 18:56:56 11° ENE
Cosmos 1048 Rocket 4.5 18:49:03 10° NNW 18:54:07 44° ENE 18:58:02 16° SE
ISS -3.3 18:51:06 10° SW 18:54:18 43° SSE 18:56:09 21° E
Cosmos 1536 Rocket 4.0 18:51:19 10° N 18:55:32 40° ENE 18:58:59 14° SE
USA 238 DEB 4.0 18:49:37 10° NW 18:56:43 60° NE 19:02:30 17° ESE
USA 238 4.0 18:49:44 10° NW 18:56:50 59° NE 19:02:35 17° ESE
In-Cosmos 22 4.1 18:52:52 10° N 18:58:08 61° ENE 19:03:25 10° SSE
Cosmos 1891 Rocket 4.4 18:52:41 10° S 18:58:46 68° E 19:04:47 10° NNE
ARGOS 3.2 18:57:39 10° SSE 19:03:01 88° WSW 19:08:26 10° NNW
Cosmos 1025 Rocket 3.0 19:01:12 10° N 19:05:35 67° E 19:09:57 10° SSE
CZ-2C R/B 2.9 19:00:34 10° NNE 19:05:55 47° E 19:11:18 10° S
Cosmos 1707 2.8 19:04:58 10° NNW 19:08:50 77° W 19:12:39 10° S
Cosmos 2151 Rocket 3.6 19:06:45 10° S 19:11:06 55° E 19:15:29 10° NNE
KORONAS-FOTON 4.5 19:08:57 10° N 19:12:36 36° ENE 19:13:36 30° ESE
USA 186 1.6 19:13:02 20° SSE 19:15:04 89° ENE 19:18:19 10° NNW
CREW DRAGON DEMO-1 DEB 3.9 19:14:14 10° WNW 19:17:05 37° N 19:18:00 29° NE
Ariane Rocket 2.9 19:12:55 10° SSE 19:17:58 80° ENE 19:23:04 10° NNW
SJ-6B 2.6 19:16:15 24° SSE 19:18:20 67° ENE 19:22:05 10° N
Cosmos 1844 4.1 19:14:59 10° S 19:20:14 39° ESE 19:25:28 10° NE
FREGAT/IRIS 2.1 19:20:39 68° ENE 19:20:39 68° ENE 19:23:12 10° N
Cosmos 2263 Rocket 3.5 19:17:02 10° SW 19:22:18 42° NW 19:27:38 10° NNE
Nadezhda 4 Rocket 3.9 19:16:59 10° N 19:23:09 76° E 19:29:15 10° SSE
Cosmos 494 Rocket 4.3 19:18:45 10° NNW 19:23:53 50° ENE 19:26:06 31° ESE
NOSS 3-2 (A) 4.0 19:17:00 10° NW 19:24:29 84° NE 19:30:19 22° SE
NOSS 2-2 (C) 3.4 19:21:15 10° SW 19:24:44 67° NW 19:28:42 10° NE
MOS 1 4.2 19:21:25 12° SSE 19:26:39 82° ENE 19:32:24 10° NNW
Cosmos 1844 Rocket 2.7 19:23:28 10° S 19:28:53 56° ESE 19:34:21 10° NE
Cosmos 2034 Rocket 3.9 19:22:32 10° S 19:28:54 78° E 19:35:16 10° NNE
USA 102 4.3 19:24:06 15° S 19:29:08 41° SW 19:29:58 33° W
Cosmos 2298 Rocket 3.9 19:25:59 10° SSW 19:31:18 79° ESE 19:36:40 10° NNE
SPOT 3 Rocket 3.7 19:32:57 34° SE 19:34:57 54° ENE 19:39:58 10° N
Resurs 01 Rocket 1.9 19:42:54 44° E 19:43:13 45° ENE 19:47:29 10° N
USA 234 3.4 19:37:13 10° ENE 19:43:30 50° SE 19:49:49 10° SSW
SWAS 4.4 19:40:55 10° NNW 19:45:14 71° ENE 19:45:52 59° ESE
Lacrosse 5 rocket 3.5 19:43:10 10° WNW 19:46:43 24° N 19:49:28 14° NE
MetOp-A 4.2 19:42:59 18° S 19:46:59 76° WSW 19:52:22 10° NNW
Cosmos 1833 Rocket 3.8 19:45:42 10° N 19:50:34 28° NE 19:51:25 27° ENE
OBJECT-B 1.1 19:52:33 65° NW 19:52:33 65° NW 19:55:25 10° NNW
Meteor 1-15 Rocket 4.1 19:47:44 10° S 19:53:21 88° E 19:59:06 10° NNE
Cosmos 1626 3.2 19:53:41 10° N 19:56:03 33° NNE 19:56:03 33° NNE
NOSS 3-2 (C) 4.0 19:51:49 10° NW 19:59:19 87° NE 20:03:03 38° SE
DMSP B5D2-2 4.2 19:54:19 10° N 19:59:36 74° WNW 20:04:52 10° SSW
ARIANE 5 R/B 3.5 20:01:02 36° NE 20:01:02 36° NE 20:04:18 10° N
Cosmos 2150 Rocket 4.4 19:55:43 10° SSW 20:01:03 67° WNW 20:06:31 10° NNE
Cosmos 1634 Rocket 3.9 19:59:03 36° SSE 20:01:31 63° E 20:07:37 10° NNE
Abrixas rocket 4.1 20:01:35 10° WNW 20:03:00 26° WNW 20:03:00 26° WNW
BREEZE-M TANK 2.8 19:57:11 10° WSW 20:04:32 62° S 20:04:37 62° SSE
Landsat 7 4.5 20:09:06 40° NE 20:09:06 40° NE 20:12:56 10° N
Cosmos 2285 Rocket 3.9 20:02:30 10° SSW 20:08:47 83° ESE 20:15:11 10° NNE
Cosmos 1125 Rocket 3.5 20:03:32 10° SSW 20:08:51 82° WNW 20:14:13 10° NNE
Okean 1 Rocket 3.1 20:08:19 56° SSW 20:09:14 81° W 20:13:45 10° N
ERS-1 Rocket 4.3 20:17:26 26° NE 20:17:26 26° NE 20:20:39 10° N
Cosmos 1627 Rocket 4.5 20:10:54 10° N 20:17:19 86° W 20:19:38 43° S
Resurs 1-3 4.2 20:18:56 47° SW 20:19:38 52° W 20:23:57 10° NNW
Cosmos 1092 Rocket 4.3 20:16:31 10° NNW 20:22:36 64° W 20:25:37 31° SSW
Meteor 2-5 Rocket 3.9 20:18:14 10° NNW 20:23:51 70° W 20:25:27 47° SSW
Cosmos 1805 4.1 20:24:12 48° WNW 20:24:12 48° WNW 20:27:47 10° N
Cosmos 1674 4.4 20:23:03 10° NNW 20:26:27 30° W 20:27:00 29° WSW
ATLAS 2AS CENTAUR R/B 3.0 20:19:22 10° SSW 20:27:06 59° ESE 20:34:48 10° NE
Cosmos 2026 Rocket 4.1 20:22:30 10° NNW 20:28:52 76° W 20:30:53 46° S
Cosmos 2098 Rocket 4.4 20:23:12 10° N 20:30:00 50° ENE 20:30:00 50° ENE
ISS -1.3 20:27:49 10° W 20:29:08 21° W 20:29:08 21° W
Cosmos 2082 Rocket 3.2 20:27:40 10° NNW 20:32:16 33° NE 20:32:16 33° NE
Meteor 1-22 Rocket 4.3 20:34:25 60° SSW 20:35:34 84° W 20:41:39 10° N
CENTAUR R/B 3.3 20:28:17 10° NW 20:36:20 69° WSW 20:39:10 46° S
CZ-2C R/B 4.3 20:34:48 10° N 20:38:59 55° WNW 20:38:59 55° WNW
SPOT 1/Viking Rocket 4.0 20:43:21 55° NNE 20:43:21 55° NNE 20:47:29 10° N
ATLAS 3B R/B 2.8 20:36:48 10° NW 20:43:36 62° NE 20:44:10 60° ENE
COSMOS 2406 3.2 20:37:54 10° NNW 20:43:10 74° N 20:43:10 74° N
Cosmos 2279 Rocket 3.8 20:44:35 82° ENE 20:44:35 82° ENE 20:50:46 10° N
Meteor 1-24 Rocket 4.1 20:41:11 10° NNW 20:46:35 59° W 20:47:08 56° WSW
Cosmos 2142 Rocket 4.4 20:47:06 71° SSW 20:47:50 83° W 20:54:07 10° N
Cosmos 1269 Rocket 4.4 20:43:00 10° NNW 20:48:00 60° W 20:48:00 60° W
Spot 2 Rocket 4.0 20:51:06 56° NNW 20:51:06 56° NNW 20:55:05 10° NNW
Terra 3.6 21:02:36 25° NNE 21:02:36 25° NNE 21:04:44 10° N
Cosmos 2278 Rocket 4.3 21:07:57 16° NE 21:07:57 16° NE 21:09:05 10° NNE
Lacrosse 4 Rocket 3.8 21:05:20 10° NNW 21:06:37 19° NNW 21:06:37 19° NNW
Cosmos 909 Rocket 4.3 21:03:39 10° NNW 21:09:31 59° NNE 21:09:31 59° NNE
Resurs 01 Rocket 3.9 21:20:28 20° W 21:20:28 20° W 21:23:19 10° NW
SPOT 5 4.3 21:28:43 37° NNW 21:28:43 37° NNW 21:31:53 10° NNW
USA 234 3.5 21:24:43 46° NNE 21:26:39 65° NNW 21:33:07 10° WSW
Lacrosse 5 rocket 3.8 21:23:01 10° NW 21:25:05 22° NNW 21:25:05 22° NNW
Cosmos 1833 Rocket 3.8 21:29:19 10° NW 21:33:07 40° NW 21:33:07 40° NW
Cosmos 2082 Rocket 4.1 22:11:39 10° NW 22:14:06 25° NW 22:14:06 25° NW
ATLAS 2AS CENTAUR R/B 3.8 22:10:45 10° WSW 22:18:24 48° NW 22:25:56 10° NE
ATLAS 3B R/B 4.3 22:27:53 10° NW 22:31:25 27° WNW 22:31:25 27° WNW
Cosmos 2278 Rocket 4.3 22:49:46 22° NNW 22:49:46 22° NNW 22:52:45 10° N
CZ-4C R/B 4.4 23:34:17 23° NNE 23:34:17 23° NNE 23:37:01 10° NNE
